ATLAS 5 CENTAUR DEB, 44664

Orbit data source: Space-Track

ATLAS 5 CENTAUR DEB, 44664 is space debris in HEO originally from a launch on Wed, 17 Oct 2018 UTC launched from the Air Force Eastern Test Range (AFETR). Debris objects in space refer to the collection of defunct objects orbiting the Earth. Examples of debris include non-operational satellites, rocket bodies, and fragments generated from explosions, collisions, or faulty payload assembly.

Loading next visibility...
Identifier
44664, 2018-079AA
Orbit
HEO
Country
Flag of USUS
Related business
Flag of USUnited Launch Alliance/Lockheed Martin (US)
Manufacturer
ULA Decatur
Mission
Spacecraft
Bus & Motor
Unknown
Mass
Unknown
Launch date (UTC)
2018-10-17 (7 years ago)
Launch vehicle
Unknown
Launch site
Air Force Eastern Test Range (AFETR)
Object type
Payload
Rocket body
Debris
Shape & HBR
Unknown
Radar Cross Section
RCS unknown

Expand to show TLE details & history
Last TLE update: 1 year ago

TLE from 1 year ago
0 ATLAS 5 CENTAUR DEB
1 44664U 18079AA  24190.17350872 -.00000110  00000-0  00000-0 0  9991
2 44664  10.2312 125.1662 5129895 148.4729 256.1913  1.69334433 17227
Epoch: 2024-07-08T04:09Z
TLE epoch observation values (Epoch: 2024-07-08T04:09:51.153Z)
Latitude
0.00001°
Longitude
135.95587°
Altitude
32,616.813 km
Speed
2.653 km/s
True Right ascension
08h 20m 07s
True Declination
0° 00' 00"
Sunlit
Object was in daylight at epoch
Visualization orbit readout
Latitude
Unknown
Longitude
Unknown
Altitude
Unknown
Speed
Unknown
Apparent Right ascension
Unknown
Apparent Declination
Unknown
Sunlit
N/A
Visualization observer readout
Local Sidereal Time
06:11:45
Azimuth
Unknown
Elevation
Unknown
Doppler factor
Unknown
Orbital elements
Apogee altitude
38,610.941 km
Perigee altitude
8,103.228 km
Semi-major axis
29,735.221 km
Eccentricity
0.51299
Inclination
10.2312°
RAAN
125.1662°
Arg. of periapsis
148.4729°
True anomaly
211.44796°
Mean anomaly
256.1913°
Eccentric anomaly
232.78442°
Mean motion
0.42329 °/min
Orbital period
850.48 mins
BSTAR
0
Loading maneuver chart data...
Computing Atmospheric mass density...

Documentation

Showing up to 5 results
|